Location: Habighorst
(52.7089°N, 10.2278°E)
Time: 23:55:12
(UTC+00:00)

ATLAS CENTAUR R/B - Pass Details

Date: 13 January 2026
Orbit: 313 x 360 km, 64.6° (Epoch: 9 February)

Event Time Altitude Azimuth Distance (km) Brightness Sun altitude
Exits shadow 04:48:11 32° 50° (NE) 698 2.2 -22.8°
Drops below altitude 10° 04:50:42 10° 103° (ESE) 1,393 4.5 -22.5°
Sets 04:52:47 0° 113° (ESE) 2,221 5.7 -22.1°
